Location: Newark
(45.4422°N, 16.2769°E)
Time: 16:56:15
(UTC+00:00)

Tiros 1 despin weight - Pass Details

Date: 24 December 2019
Orbit: 593 x 643 km, 48.2° (Epoch: 19 January)

Event Time Altitude Azimuth Distance (km) Brightness Sun altitude
Rises 03:37:40 0° 290° (WNW) 2,905 - -29.6°
Reaches altitude 10° 03:40:01 10° 288° (WNW) 1,988 - -29.2°
Maximum altitude 03:44:33 69° 206° (SSW) 657 - -28.4°
Exits shadow 03:45:57 42° 136° (SE) 874 ? -28.2°
Drops below altitude 10° 03:49:00 10° 122° (ESE) 1,950 ? -27.6°
Sets 03:51:17 0° 120° (ESE) 2,844 ? -27.2°
